This is the latest recevied weather packets stored in our database for station/object KD9NSC. If no packets are shown the sender has not sent any weather packets the latest 10 day(s).
| Time | Temp. | Humidity | Pressure | Rain* | Wind** | Luminosity | Snow |
|---|---|---|---|---|---|---|---|
| 1777500382 | 6.11° C | 91% | 1016.8 hPa | 0 mm | - | 18 W/m² | - |
| 1777500078 | 6.67° C | 92% | 1016.5 hPa | 0 mm | - | 24 W/m² | - |
| 1777499775 | 6.67° C | 92% | 1016.7 hPa | 0 mm | - | 23 W/m² | - |
| 1777499471 | 6.11° C | 92% | 1016.8 hPa | 0 mm | - | 37 W/m² | - |
| 1777499170 | 6.11° C | 92% | 1016.7 hPa | 0 mm | - | 24 W/m² | - |
| 1777498866 | 6.11° C | 92% | 1016.5 hPa | 0 mm | - | 16 W/m² | - |
| 1777498563 | 6.11° C | 91% | 1016.4 hPa | 0 mm | - | 12 W/m² | - |
| 1777498259 | 6.67° C | 91% | 1016.5 hPa | 0 mm | - | 14 W/m² | - |
| 1777497958 | 6.67° C | 91% | 1016.4 hPa | 0 mm | - | 15 W/m² | - |
| 1777497653 | 6.67° C | 91% | 1016.6 hPa | 0 mm | - | 30 W/m² | - |
| 1777497350 | 6.67° C | 91% | 1016.7 hPa | 0 mm | - | 28 W/m² | - |
| 1777497045 | 7.22° C | 91% | 1016.7 hPa | 0 mm | - | 28 W/m² | - |
| 1777496743 | 7.22° C | 91% | 1016.6 hPa | 0 mm | - | 57 W/m² | - |
| 1777496439 | 7.22° C | 91% | 1016.6 hPa | 0 mm | - | 40 W/m² | - |
| 1777496136 | 7.22° C | 92% | 1016.4 hPa | 0 mm | - | 41 W/m² | - |
| 1777495832 | 7.22° C | 93% | 1016.5 hPa | 0 mm | - | 47 W/m² | - |
| 1777495528 | 7.22° C | 93% | 1016.4 hPa | 0 mm | - | 50 W/m² | - |
| 1777495224 | 6.67° C | 93% | 1016.4 hPa | 0 mm | - | 51 W/m² | - |
| 1777494922 | 6.67° C | 93% | 1016.5 hPa | 0 mm | - | 35 W/m² | - |
| 1777494619 | 6.67° C | 93% | 1016.6 hPa | 0 mm | - | 29 W/m² | - |
| 1777494316 | 6.67° C | 93% | 1016.6 hPa | 0 mm | - | 24 W/m² | - |
| 1777494012 | 6.67° C | 94% | 1016.7 hPa | 0 mm | - | 24 W/m² | - |
| 1777493711 | 6.67° C | 94% | 1016.7 hPa | 0 mm | - | 24 W/m² | - |
| 1777493409 | 6.67° C | 94% | 1016.6 hPa | 0 mm | - | 25 W/m² | - |
| 1777493104 | 6.67° C | 94% | 1016.5 hPa | 0 mm | - | 24 W/m² | - |
* Rain latest hour (hover to see other rain measurements)
** Current wind speed in m/s (hover to see current wind gust speed)